Temperature
10 10 10 10 10 10 10 10 10 10 11 11 11 11 11 11 11 11 11 11 11 11 11 11 11 11 11 11 11 11 11 11 11 11 11 11 11 11 11 11 11 10 10
9 9 9 9 10 10 10 10 10 10 10 10 10 10 10 10 10 10 11 11 11 11 11 11 11 11 11 11 11 11 11 11 11 11 11 11 11 11 10 10 10 10 10
8 9 9 9 9 9 9 9 10 10 10 10 10 10 10 10 10 10 10 10 10 10 11 11 11 11 11 11 11 11 11 11 11 11 11 11 11 11 10 10 10 10 10
8 8 8 8 9 9 9 9 9 9 9 9 9 10 10 10 10 10 10 10 10 10 10 10 10 11 11 11 10 11 11 10 10 10 10 10 10 10 10 10 10 10 10
7 7 8 8 8 8 8 8 9 9 9 9 9 9 9 9 9 9 9 10 10 10 10 10 10 10 10 10 10 10 10 10 10 10 10 10 10 10 10 10 10 10 10
7 7 7 7 7 8 8 8 8 8 8 8 8 8 9 9 9 9 9 9 9 10 10 10 10 10 10 10 10 10 10 10 10 10 10 10 10 10 10 10 10 10 10
7 7 7 7 7 7 7 7 8 8 8 8 8 8 8 8 8 9 9 9 9 9 9 10 10 10 10 10 10 10 10 10 10 10 10 10 10 10 9 10 10 10 9
6 6 6 6 6 7 7 7 7 7 7 7 7 6 7 7 7 8 8 9 9 9 9 9 9 9 9 9 9 9 9 9 9 9 9 9 9 9 9 9 9 9 9
6 6 6 6 6 6 6 6 6 6 6 6 6 6 6 7 7 7 8 8 8 8 9 9 9 9 9 9 9 9 9 9 9 9 9 9 9 9 9 9 9 9 9
5 5 5 5 5 5 6 6 6 6 6 6 6 6 6 6 6 7 7 8 8 8 8 8 9 9 9 9 9 9 9 9 9 9 8 8 8 9 9 9 9 9 9
4 5 5 5 5 5 5 5 5 5 5 5 6 6 6 6 6 6 6 7 7 8 8 8 8 8 8 8 8 9 9 9 9 9 8 8 8 8 8 8 8 8 8
4 4 4 4 4 5 5 5 5 5 5 5 5 5 6 6 6 6 6 6 6 7 7 8 8 8 8 8 8 8 8 8 8 8 8 8 8 8 8 8 8 8 8
3 3 4 4 4 4 4 4 4 4 5 5 5 5 5 5 5 6 6 6 6 6 7 7 7 7 7 8 8 8 8 8 8 8 8 8 8 8 8 8 8 8 8
3 3 3 3 4 4 4 4 4 4 4 4 4 4 4 5 5 5 5 5 5 5 6 6 7 7 7 7 7 7 8 8 8 8 8 8 7 7 7 7 7 7 7
2 2 3 3 3 3 3 3 3 3 3 4 4 4 4 4 4 4 5 5 5 5 5 6 6 6 7 7 7 7 7 7 7 7 7 7 7 7 7 7 7 7 7
2 2 2 2 3 3 3 3 3 3 3 3 3 3 3 4 4 4 4 4 4 4 4 5 5 6 6 6 6 6 6 7 7 7 7 7 7 7 7 7 7 7 6
1 1 2 2 2 2 2 2 2 2 2 2 3 3 3 3 3 3 3 4 4 4 4 4 5 5 5 6 6 6 6 6 6 6 6 6 6 6 6 6 6 6 6
0 1 1 1 1 2 2 2 2 2 2 2 2 2 2 3 3 3 3 3 3 3 4 4 4 4 4 5 5 5 5 5 5 6 6 6 6 6 6 6 6 6 6
-0 -0 0 0 1 1 1 1 1 1 1 2 2 2 2 2 2 3 3 3 3 3 3 3 3 3 4 4 4 4 4 5 5 5 5 5 5 5 5 5 5 5 5
-1 -1 -1 -0 -0 0 0 0 0 1 1 1 1 2 2 2 2 2 2 2 3 3 3 3 3 3 3 3 3 4 4 4 4 5 5 5 5 5 5 5 5 5 5
-1 -1 -1 -1 -1 -1 -0 -0 -0 -0 0 1 1 1 1 2 2 2 2 2 2 2 2 2 2 2 2 3 3 3 3 4 4 4 4 4 4 4 5 4 4 4 4
-2 -2 -2 -1 -1 -1 -1 -1 -1 -1 -0 0 0 1 1 1 2 2 2 2 2 2 2 2 2 2 2 2 2 3 3 3 3 3 4 4 4 4 4 4 4 4 4
-3 -2 -2 -2 -2 -1 -1 -1 -1 -1 -1 -0 0 0 1 1 1 1 1 2 2 2 2 2 2 2 2 2 2 2 2 2 2 3 3 3 3 3 4 4 4 4 3
-3 -3 -3 -3 -2 -2 -2 -2 -1 -1 -1 -0 -0 0 0 0 1 1 1 1 1 1 2 2 2 2 2 2 2 2 2 2 2 2 2 2 2 3 3 3 3 3 3
-4 -4 -3 -3 -3 -3 -2 -2 -2 -2 -1 -1 -0 -0 -0 0 1 1 1 1 1 1 1 1 1 1 1 1 1 1 1 1 1 1 1 1 2 2 2 3 3 2 2
-4 -4 -4 -3 -3 -3 -2 -2 -2 -2 -1 -1 -1 -0 -0 0 0 0 0 0 0 1 1 1 1 0 0 0 1 0 0 0 0 0 1 1 1 1 1 2 2 2 2
Wind_Speed
1 1 1 1 1 1 2 1 1 2 2 2 2 3 4 3 3 3 3 4 4 4 6 7 7 7 7 8 8 8 8 8 8 8 8 7 7 7 8 8 8 8 8
1 1 1 1 1 1 2 2 2 1 2 2 2 2 3 3 3 4 3 4 4 4 5 6 7 7 7 8 8 8 8 7 7 7 7 7 7 7 7 7 7 7 7
1 2 1 1 1 1 2 2 2 1 1 2 2 3 2 3 4 4 4 4 4 5 4 5 6 6 7 8 8 8 8 7 7 7 7 7 7 6 6 7 7 6 6
2 1 1 1 1 1 1 2 2 2 1 2 2 2 2 2 4 4 4 4 4 4 5 4 5 5 6 8 8 8 8 7 7 7 7 7 6 6 6 6 6 6 6
2 2 1 1 1 1 1 2 2 3 3 2 2 2 2 2 3 4 4 4 4 4 5 4 5 5 5 7 8 8 8 8 8 8 7 7 7 6 7 6 6 6 6
2 2 2 2 1 1 1 2 2 3 3 2 2 2 2 3 3 4 5 4 5 5 5 5 5 5 5 6 7 8 9 9 8 8 8 8 7 7 7 6 5 5 6
2 2 2 2 2 2 2 2 2 3 2 2 2 2 2 3 4 4 4 4 4 5 5 5 5 5 5 6 7 8 9 10 10 9 8 8 8 8 7 7 6 5 6
2 2 2 2 2 2 2 2 2 2 2 3 3 2 2 3 4 4 4 5 5 5 5 6 6 5 5 6 6 8 9 9 10 10 9 9 9 9 8 7 6 6 5
3 3 3 3 3 3 3 3 3 4 4 3 3 3 3 3 1 3 5 5 5 5 5 5 6 6 6 6 6 7 8 9 9 9 9 8 8 9 9 8 7 7 6
4 4 4 4 4 4 4 4 4 4 5 4 4 4 3 3 3 2 3 4 5 6 6 5 5 6 7 6 6 6 8 9 9 10 10 10 9 9 9 9 8 8 8
4 5 5 4 5 4 5 5 5 5 5 6 5 4 4 3 5 4 4 4 4 4 4 4 4 5 6 7 6 7 8 9 11 11 10 10 10 9 9 9 9 8 9
4 5 5 5 5 5 5 6 6 7 6 6 6 5 5 5 5 4 5 5 5 4 4 4 4 4 5 6 6 6 7 8 10 11 11 10 10 10 9 9 9 9 8
4 5 5 6 6 6 6 6 6 7 7 7 7 6 6 6 5 5 5 4 4 4 4 5 5 5 5 5 6 7 7 9 9 10 10 10 9 8 8 8 8 8 7
5 6 6 6 6 7 6 6 6 6 6 7 8 7 6 6 5 6 5 5 5 5 5 5 4 5 5 5 5 5 7 9 9 9 9 9 8 8 7 7 6 7 7
6 7 7 7 7 7 7 6 6 7 7 7 8 8 7 6 6 6 6 6 6 6 6 5 4 4 4 4 4 6 6 6 8 9 9 9 8 8 8 7 7 6 7
7 7 7 7 7 7 7 7 6 7 8 7 7 8 8 7 6 6 6 6 7 8 7 5 4 4 4 4 4 6 6 6 8 9 9 9 9 8 8 8 8 8 7
7 7 7 7 7 8 8 8 8 8 9 8 8 9 9 8 7 6 6 7 7 7 8 6 5 5 5 5 4 5 5 6 6 9 10 9 9 9 9 9 8 8 8
7 8 8 8 8 8 8 9 9 9 10 10 10 10 10 8 9 8 7 8 8 8 8 8 6 5 7 6 5 4 4 5 6 7 9 10 9 10 10 9 9 9 8
8 8 8 8 9 9 9 9 10 10 10 10 11 11 11 10 11 9 9 8 8 7 7 7 7 5 5 5 5 4 5 4 5 6 9 10 10 10 10 9 9 9 9
8 8 9 9 9 9 10 10 10 10 10 11 11 11 11 12 12 12 10 10 8 8 8 7 6 6 5 5 5 5 5 5 5 5 6 8 10 10 11 11 10 10 10
8 8 8 9 9 9 9 10 10 10 10 11 11 11 11 12 13 12 10 10 9 9 8 8 7 6 6 6 6 5 6 5 5 5 5 6 7 7 8 11 11 11 11
8 8 8 9 10 9 10 12 11 11 11 12 11 11 11 12 13 14 14 14 13 11 11 10 8 9 9 8 7 6 6 5 5 4 5 6 6 7 7 8 10 11 11
8 9 9 9 10 11 12 12 12 11 12 12 12 11 10 10 12 12 12 13 14 15 14 12 11 12 10 9 8 9 8 8 7 4 4 6 6 7 7 8 11 12 12
8 9 9 10 10 11 11 12 12 11 11 12 12 12 12 12 11 12 11 12 12 13 13 12 12 11 10 8 9 8 8 6 5 4 5 5 5 6 5 7 10 11 12
8 9 9 9 10 11 11 11 11 9 9 11 11 12 13 13 13 13 12 12 12 10 10 12 12 11 10 11 9 6 6 6 5 4 4 4 4 4 5 6 7 10 11
9 9 9 9 10 11 11 11 11 8 9 9 9 10 13 14 14 14 13 12 12 11 9 8 9 9 10 10 12 10 8 8 5 4 4 4 3 2 3 4 4 6 9
Wind_Direction
348 344 330 263 230 197 184 176 198 198 195 191 197 185 174 173 175 170 154 148 164 154 157 155 157 159 157 154 145 146 142 136 132 127 126 127 119 127 127 121 114 109 106
325 297 240 267 260 237 211 201 196 210 208 196 198 198 192 182 182 182 177 169 163 168 162 166 169 168 166 163 158 152 149 145 145 139 137 134 135 123 133 135 128 119 111
317 305 253 244 269 259 229 199 186 186 197 197 204 202 201 198 191 190 190 191 182 174 173 174 172 174 175 173 171 164 159 157 155 157 155 149 141 140 133 145 142 133 123
319 311 280 258 269 242 236 206 194 194 201 211 203 202 199 196 198 198 195 196 197 191 179 178 181 181 184 183 179 174 170 168 167 166 165 162 156 153 154 146 154 148 142
311 301 288 265 244 230 243 224 209 205 201 209 211 213 213 206 208 206 203 202 205 203 193 182 191 194 193 194 189 187 183 177 178 178 174 170 166 166 162 159 159 165 164
305 301 283 256 234 222 227 232 215 214 205 197 209 222 216 214 221 213 211 205 206 207 205 199 198 199 201 200 199 194 192 191 186 185 187 183 179 179 178 175 173 175 178
289 294 282 256 233 217 221 218 213 200 198 194 193 205 223 217 215 220 217 209 208 209 207 207 208 208 204 204 208 203 196 197 197 193 195 195 193 193 192 193 192 189 193
269 277 272 259 242 224 217 212 211 207 212 207 199 190 205 220 215 224 217 216 218 210 210 212 211 213 207 207 206 206 203 199 199 199 197 199 199 201 201 200 198 199 199
258 258 258 259 251 229 219 222 220 221 216 219 214 208 205 216 233 217 219 220 218 215 213 216 214 216 212 208 207 205 206 202 200 199 200 199 202 207 207 207 208 211 214
257 252 252 253 248 240 227 223 225 233 219 216 219 234 239 224 215 212 222 223 223 222 216 217 217 220 220 211 210 206 203 203 206 209 211 212 211 215 215 215 216 218 220
261 254 251 253 248 244 238 231 231 232 227 220 217 222 227 224 236 226 226 226 229 231 224 223 224 224 222 218 214 210 200 204 209 212 215 217 217 220 222 222 222 224 225
271 262 251 251 249 245 244 238 234 230 233 228 221 222 220 213 218 227 227 223 231 232 230 232 230 230 226 220 217 208 199 204 211 215 218 221 222 224 226 229 230 230 231
269 268 265 252 250 247 245 245 236 231 233 227 223 226 230 227 226 233 229 229 241 242 232 232 230 232 229 223 221 209 203 205 208 213 216 221 222 223 225 229 234 234 234
262 267 263 259 260 253 247 244 240 236 234 231 228 228 232 231 229 226 226 225 233 237 228 229 226 230 226 222 224 212 211 205 206 207 215 220 218 218 221 225 231 235 234
262 261 262 260 260 258 249 243 240 235 232 232 228 227 231 234 230 233 229 225 229 234 230 225 219 219 223 223 219 215 218 206 203 207 214 217 218 218 221 225 231 237 236
258 258 258 260 258 259 254 242 241 239 232 235 232 226 231 235 231 230 229 234 235 239 241 229 228 221 214 224 221 216 219 213 208 210 214 216 218 217 217 221 227 232 236
256 256 257 258 257 255 254 247 239 237 234 236 232 228 231 233 231 227 228 231 234 235 237 239 236 227 223 223 222 224 225 223 219 213 212 215 220 221 220 221 227 230 233
258 257 256 256 256 255 252 250 245 240 234 235 232 230 231 230 229 228 226 229 230 232 233 231 232 227 229 224 224 228 233 231 226 218 218 218 221 225 223 222 227 230 231
259 258 256 255 255 254 251 251 249 246 239 237 232 230 229 228 229 227 226 230 231 231 229 222 228 229 233 222 226 237 239 243 236 234 227 224 223 225 225 226 229 231 232
257 257 257 256 254 254 251 251 252 251 247 243 237 233 230 228 229 226 225 227 229 228 222 217 220 222 226 224 223 230 238 245 243 238 237 231 231 228 229 230 229 231 233
261 260 259 258 256 254 249 249 253 255 253 247 240 236 233 230 232 227 225 223 223 226 219 216 219 222 221 214 221 227 234 241 244 232 238 233 231 231 233 232 229 229 230
264 263 259 258 257 254 254 256 256 255 256 248 241 238 235 230 230 228 228 226 224 224 218 217 223 222 225 224 223 222 227 233 241 225 235 239 227 231 235 234 232 228 228
266 262 260 257 257 258 257 258 260 258 258 249 241 237 235 231 227 226 227 228 230 231 227 223 222 226 225 220 219 222 226 231 242 232 233 242 229 234 239 236 227 226 229
268 262 260 259 260 260 259 260 263 258 259 254 244 238 236 235 228 225 227 229 232 232 229 229 229 231 230 224 220 225 228 238 249 234 229 242 239 243 246 239 225 224 231
270 266 263 260 261 263 261 263 265 259 256 256 249 241 236 235 228 224 227 229 231 233 231 227 231 231 226 221 214 217 218 223 242 239 224 235 246 258 251 241 231 226 231
269 269 265 262 260 262 262 262 262 257 257 257 252 243 236 234 228 221 223 223 227 229 223 219 222 222 223 219 215 217 217 221 232 237 214 217 231 239 252 241 238 242 239
Height
1530 1530 1531 1532 1533 1533 1534 1534 1535 1536 1538 1538 1539 1540 1541 1542 1544 1544 1545 1546 1547 1548 1549 1550 1551 1552 1553 1553 1554 1555 1555 1556 1556 1556 1557 1558 1558 1558 1559 1559 1559 1559 1559
1528 1528 1529 1529 1530 1531 1532 1532 1533 1534 1535 1536 1537 1538 1539 1540 1541 1543 1544 1545 1546 1547 1548 1549 1550 1551 1552 1553 1553 1554 1555 1555 1556 1556 1557 1557 1558 1558 1559 1559 1559 1559 1559
1526 1526 1526 1527 1527 1528 1529 1530 1531 1532 1533 1534 1535 1536 1537 1538 1539 1541 1542 1543 1544 1545 1546 1548 1549 1550 1551 1551 1552 1553 1553 1554 1555 1555 1556 1557 1557 1558 1558 1558 1559 1559 1559
1523 1523 1524 1524 1525 1525 1526 1527 1528 1529 1530 1531 1532 1533 1534 1536 1537 1538 1540 1541 1542 1543 1544 1546 1547 1548 1549 1550 1551 1551 1552 1553 1554 1554 1555 1556 1556 1557 1557 1558 1558 1559 1559
1520 1521 1521 1521 1522 1522 1523 1524 1525 1526 1527 1528 1529 1530 1532 1533 1534 1536 1537 1538 1540 1541 1542 1543 1545 1546 1547 1548 1549 1550 1550 1551 1552 1553 1553 1554 1555 1556 1556 1556 1557 1557 1558
1517 1518 1518 1518 1519 1519 1520 1521 1522 1523 1524 1525 1526 1528 1529 1530 1531 1533 1534 1535 1537 1538 1539 1540 1542 1543 1545 1546 1547 1548 1548 1549 1550 1551 1552 1553 1553 1554 1555 1555 1556 1556 1557
1515 1515 1515 1515 1515 1516 1517 1518 1518 1519 1521 1522 1524 1525 1526 1527 1528 1529 1530 1532 1533 1535 1536 1538 1539 1540 1541 1543 1544 1545 1546 1547 1547 1548 1549 1551 1551 1552 1553 1553 1554 1554 1555
1512 1512 1512 1512 1512 1513 1514 1515 1515 1516 1517 1519 1520 1521 1523 1525 1524 1525 1527 1528 1530 1531 1533 1534 1536 1537 1538 1539 1541 1542 1543 1544 1545 1546 1547 1548 1549 1550 1551 1551 1552 1552 1553
1508 1509 1509 1509 1509 1510 1510 1511 1512 1513 1514 1515 1517 1519 1520 1521 1521 1522 1523 1525 1526 1527 1529 1530 1532 1533 1534 1536 1537 1538 1540 1541 1542 1543 1544 1545 1546 1547 1548 1549 1549 1550 1550
1504 1505 1505 1506 1506 1507 1507 1508 1509 1510 1511 1511 1513 1515 1517 1518 1519 1518 1520 1521 1522 1524 1525 1527 1528 1529 1531 1532 1533 1534 1536 1537 1539 1540 1541 1542 1543 1544 1545 1546 1546 1547 1547
1500 1501 1501 1502 1503 1503 1504 1504 1505 1506 1507 1508 1509 1511 1512 1513 1515 1516 1515 1517 1518 1519 1520 1522 1523 1525 1526 1527 1529 1530 1532 1533 1535 1536 1537 1539 1540 1541 1542 1542 1543 1544 1544
1496 1497 1497 1498 1499 1499 1499 1500 1501 1502 1503 1504 1505 1506 1508 1508 1510 1512 1512 1513 1514 1515 1516 1517 1519 1520 1522 1523 1524 1526 1527 1529 1530 1532 1533 1534 1536 1536 1538 1538 1539 1540 1540
1492 1492 1493 1493 1494 1495 1495 1496 1497 1498 1499 1500 1500 1502 1503 1504 1506 1508 1509 1509 1510 1511 1511 1512 1514 1515 1517 1518 1520 1521 1523 1524 1526 1527 1528 1530 1531 1532 1533 1534 1535 1536 1536
1488 1488 1488 1489 1489 1490 1491 1492 1492 1493 1494 1495 1496 1497 1499 1500 1501 1503 1504 1505 1506 1506 1506 1507 1509 1510 1512 1513 1514 1516 1517 1519 1521 1522 1523 1525 1526 1527 1528 1529 1530 1531 1531
1483 1483 1483 1484 1484 1485 1486 1486 1487 1488 1489 1490 1491 1493 1494 1495 1496 1498 1499 1501 1502 1502 1501 1502 1504 1505 1507 1508 1509 1511 1512 1513 1515 1516 1518 1519 1521 1522 1523 1524 1525 1526 1527
1479 1479 1479 1479 1479 1480 1481 1481 1482 1483 1484 1485 1486 1487 1488 1490 1491 1492 1494 1495 1496 1497 1497 1497 1498 1500 1502 1503 1505 1506 1507 1508 1509 1511 1512 1514 1515 1517 1518 1519 1520 1521 1522
1474 1473 1473 1473 1474 1474 1475 1476 1476 1477 1478 1479 1480 1481 1482 1484 1485 1486 1488 1489 1491 1492 1491 1492 1494 1495 1497 1498 1500 1501 1502 1503 1504 1506 1507 1508 1510 1511 1513 1514 1515 1516 1516
1468 1468 1468 1468 1468 1468 1469 1470 1471 1471 1472 1473 1474 1475 1476 1478 1479 1480 1482 1483 1484 1486 1487 1486 1488 1490 1491 1493 1494 1496 1497 1498 1499 1500 1501 1503 1504 1506 1507 1508 1509 1510 1511
1462 1462 1462 1462 1462 1463 1463 1464 1465 1465 1466 1467 1468 1469 1470 1471 1472 1474 1475 1477 1478 1479 1481 1481 1482 1484 1486 1487 1489 1490 1491 1492 1494 1494 1496 1497 1498 1500 1501 1502 1503 1504 1505
1457 1456 1456 1456 1456 1457 1457 1458 1458 1459 1459 1460 1461 1462 1463 1464 1466 1467 1468 1470 1471 1473 1475 1475 1476 1478 1480 1481 1483 1484 1485 1487 1488 1489 1490 1491 1492 1494 1495 1496 1497 1498 1499
1451 1450 1450 1450 1450 1450 1451 1451 1452 1452 1453 1453 1454 1454 1456 1457 1459 1460 1461 1463 1465 1466 1468 1469 1470 1472 1473 1474 1476 1478 1479 1481 1482 1483 1484 1485 1486 1487 1488 1490 1491 1492 1493
1445 1444 1444 1444 1443 1444 1444 1445 1446 1446 1446 1446 1447 1447 1449 1450 1451 1453 1454 1456 1458 1459 1461 1462 1463 1465 1466 1469 1471 1472 1474 1475 1475 1478 1479 1479 1480 1481 1482 1483 1484 1485 1486
1439 1438 1438 1438 1437 1437 1437 1438 1439 1439 1439 1439 1440 1441 1442 1442 1444 1445 1447 1448 1450 1452 1454 1456 1457 1458 1461 1462 1465 1467 1468 1469 1470 1471 1473 1472 1474 1474 1475 1476 1478 1479 1480
1433 1432 1432 1431 1430 1430 1431 1431 1431 1432 1432 1432 1432 1433 1434 1435 1436 1438 1439 1440 1442 1444 1446 1448 1450 1453 1456 1458 1460 1461 1462 1464 1464 1465 1466 1467 1467 1468 1469 1470 1471 1472 1474
1427 1426 1426 1425 1424 1424 1424 1424 1425 1425 1425 1424 1425 1426 1427 1428 1429 1431 1432 1433 1435 1436 1439 1441 1444 1446 1449 1451 1453 1455 1456 1457 1457 1458 1460 1461 1460 1461 1462 1463 1464 1466 1467
1421 1421 1420 1419 1418 1418 1418 1418 1419 1419 1418 1418 1418 1418 1419 1420 1421 1423 1425 1426 1427 1429 1432 1434 1436 1439 1442 1444 1446 1448 1449 1451 1452 1452 1453 1455 1455 1456 1456 1456 1458 1459 1460